Home   Weather   Auckland   Past weeks
Flag for New Zealand

Past Weather in Auckland, New Zealand — Yesterday and Last 2 Weeks

Now
64 °F

Partly sunny.


Feels Like: 64 °F
Forecast: 70 / 56 °F
Wind: 5 mph from Southeast

Location: Auckland Airport

Current Time: Mar 29, 2020 at 7:51:50 pm

Latest Report: Mar 29, 2020 at 7:00 pm


Visibility: N/A

Pressure: 30.12 "Hg

Humidity: 78%

Dew Point: 57 °F

Location of AucklandLocation

Past Weather in Auckland — Graph

°F

Auckland Temperature Yesterday

Maximum temperature yesterday: 66 °F (at 2:30 pm)
Minimum temperature yesterday: 57 °F (at 8:00 am)
Average temperature yesterday: 61 °F

High & Low Weather Summary for the Past Weeks

 TemperatureHumidityPressure
High77 °F (Mar 22, 2:30 pm)100% (Mar 15, 3:30 am)30.18 "Hg (Mar 15, 3:30 am)
Low52 °F (Mar 19, 3:30 am)38% (Mar 17, 4:00 pm)29.59 "Hg (Mar 23, 8:30 pm)
Average63 °F75%29.99 "Hg
* Reported Mar 14 6:00 pm — Mar 29 6:30 pm, Auckland. Weather by CustomWeather, © 2020

Note: Actual official high and low records may vary slightly from our data, if they occured in-between our weather recording intervals... More about our weather records

Auckland Weather History for the Previous 24 Hours

Scroll right to see more
 ConditionsComfort  
Time TempWeatherWind HumidityBarometerVisibility
6:30 pm
Sun, Mar 29
64 °FPartly sunny.5 mph73%30.12 "HgN/A
6:00 pm64 °FLight rain. Cloudy.8 mph73%30.09 "HgN/A
5:30 pm64 °FDrizzle. Mostly cloudy.10 mph73%30.09 "HgN/A
5:00 pm66 °FPartly sunny.10 mph64%30.09 "HgN/A
4:30 pm68 °FBroken clouds.8 mph64%30.09 "HgN/A
4:00 pm68 °FPartly sunny.9 mph64%30.09 "HgN/A
3:30 pm70 °FPassing clouds.9 mph57%30.12 "HgN/A
3:00 pm68 °FMild.10 mph60%30.12 "HgN/A
2:30 pm68 °FMild.8 mph60%30.12 "HgN/A
2:00 pm68 °FMild.8 mph60%30.12 "HgN/A
1:30 pm66 °FMild.6 mph64%30.15 "HgN/A
1:00 pm66 °FMild.7 mph60%30.15 "HgN/A
12:30 pm64 °FMild.7 mph64%30.15 "HgN/A
12:00 pm63 °FMild.6 mph64%30.15 "HgN/A
11:30 am63 °FMild.7 mph64%30.15 "HgN/A
11:00 am61 °FCool.7 mph68%30.18 "HgN/A
10:30 am59 °FPassing clouds.9 mph68%30.18 "HgN/A
10:00 am57 °FCool.8 mph77%30.15 "HgN/A
9:30 am55 °FCool.8 mph82%30.15 "HgN/A
9:00 am54 °FCool.8 mph82%30.15 "HgN/A
8:30 am54 °FCool.7 mph82%30.15 "HgN/A
8:00 am52 °FCool.8 mph88%30.15 "HgN/A
7:30 am52 °FPassing clouds.8 mph88%30.15 "HgN/A
7:00 am52 °FCool.9 mph88%30.15 "HgN/A
6:30 am52 °FCool.9 mph88%30.12 "HgN/A
6:00 am52 °FCool.8 mph88%30.12 "HgN/A
5:30 am52 °FCool.6 mph88%30.12 "HgN/A
5:00 am52 °FCool.6 mph88%30.12 "HgN/A
4:30 am54 °FCool.8 mph82%30.12 "HgN/A
4:00 am54 °FCool.8 mph82%30.12 "HgN/A
3:30 am54 °FCool.8 mph88%30.12 "HgN/A
3:00 am55 °FCool.10 mph82%30.12 "HgN/A
2:30 am55 °FCool.8 mph82%30.12 "HgN/A
2:00 am55 °FCool.9 mph82%30.12 "HgN/A
1:30 am55 °FCool.7 mph82%30.12 "HgN/A
1:00 am55 °FCool.7 mph82%30.12 "HgN/A
12:30 am55 °FCool.6 mph82%30.12 "HgN/A
12:00 am55 °FCool.3 mph88%30.12 "HgN/A
11:30 pm
Sat, Mar 28
57 °FCool.5 mph82%30.12 "HgN/A
11:00 pm57 °FCool.8 mph82%30.12 "HgN/A
10:30 pm57 °FCool.8 mph82%30.12 "HgN/A
10:00 pm59 °FCool.10 mph77%30.12 "HgN/A
9:30 pm59 °FCool.10 mph82%30.09 "HgN/A
9:00 pm59 °FCool.13 mph82%30.09 "HgN/A
8:30 pm59 °FCool.14 mph82%30.09 "HgN/A
8:00 pm59 °FCool.16 mph82%30.09 "HgN/A
7:30 pm61 °FCool.17 mph72%30.09 "HgN/A
7:00 pm61 °FCool.20 mph72%30.07 "HgN/A
Weather by CustomWeather, © 2020

See weather overview

Advertising